Location: Ripley
(48.3812°N, 115.4473°W)
Time: 21:15:24
(UTC+00:00)

CUTE 1.7 + AOD 2 - Visible Passes

Search period start: 27 June 2022 00:00
Search period end: 07 July 2022 00:00
Orbit: 590 x 607 km, 97.7° (Epoch: 27 June)

Date Brightness Start Highest point End Pass type
(mag) Time Alt. Az. Time Alt. Az. Time Alt. Az.
01 Jul ? 10:14:25 10° E 10:14:56 10° E 10:15:26 10° E visible
02 Jul ? 10:23:48 10° ENE 10:25:52 13° E 10:27:55 10° ESE visible
03 Jul ? 10:34:00 10° NE 10:36:47 17° E 10:39:33 10° SE visible
04 Jul ? 10:44:26 10° NE 10:47:42 21° E 10:50:55 10° SE visible
05 Jul ? 10:54:57 10° NE 10:58:34 27° E 11:02:09 10° SSE visible
06 Jul ? 11:05:34 10° NNE 11:09:26 35° E 11:13:15 10° SSE visible
